Location: Unspecified
(51.5147°N, 7.4673°E)
Time: 20:28:18
(UTC+01:00)

A-11 Canister half - Pass Details

Date: 22 February 2026
Orbit: 1512 x 1687 km, 47.2° (Epoch: 8 March)

Event Time Altitude Azimuth Distance (km) Brightness Sun altitude
Rises 02:30:36 0° 286° (WNW) 4,902 - -43.3°
Reaches altitude 10° 02:34:05 10° 279° (W) 3,892 - -43.0°
Maximum altitude 02:42:47 37° 218° (SW) 2,328 - -42.1°
Drops below altitude 10° 02:51:12 10° 155° (SSE) 3,758 - -41.2°
Sets 02:54:31 0° 148° (SSE) 4,716 - -40.9°
